Location: downtown San Diego
(32.7310°N, 117.1990°W)
Time: 18:18:23
(UTC-07:00)

H-2A R/B - Pass Details

Date: 19 May 2017
Orbit: 504 x 547 km, 97.3° (Epoch: 21 September)

Event Time Altitude Azimuth Distance (km) Brightness Sun altitude
Rises 20:24:16 0° 180° (S) 2,621 6.0 -8.4°
Reaches altitude 10° 20:26:26 10° 187° (S) 1,732 5.1 -8.8°
Maximum altitude 20:30:01 45° 261° (W) 699 3.8 -9.4°
Drops below altitude 10° 20:33:36 10° 335° (NNW) 1,725 6.3 -10.1°
Sets 20:35:44 0° 342° (NNW) 2,611 7.1 -10.4°
